| time (UTC) | temp C | wind direction | speed KPH | gust KPH | rain 1hr cm | rain 24hr cm | rain mn cm | humidity % | barometer mb |
| 20260504044038 | 23 | 311 | 0.0 | 0.0 | 0.00 | 0.00 | 0.00 | 45 | 1008.3 |
| 20260504043534 | 23 | 307 | 0.0 | 1.6 | 0.00 | 0.00 | 0.00 | 48 | 1008.2 |
| 20260504043032 | 23 | 285 | 0.0 | 0.0 | 0.00 | 0.00 | 0.00 | 48 | 1008.1 |
| 20260504042529 | 23 | 291 | 0.0 | 0.0 | 0.00 | 0.00 | 0.00 | 49 | 1008.3 |
| 20260504042026 | 23 | 290 | 0.0 | 1.6 | 0.00 | 0.00 | 0.00 | 48 | 1008.1 |
| 20260504041522 | 23 | 301 | 0.0 | 0.0 | 0.00 | 0.00 | 0.00 | 48 | 1008.0 |
| 20260504041018 | 24 | 304 | 0.0 | 0.0 | 0.00 | 0.00 | 0.00 | 47 | 1008.1 |
| 20260504040516 | 24 | 302 | 0.0 | 0.0 | 0.00 | 0.00 | 0.00 | 47 | 1008.1 |
| 20260504040012 | 24 | 302 | 0.0 | 0.0 | 0.00 | 0.00 | 0.00 | 46 | 1008.1 |
| 20260504035509 | 25 | 291 | 0.0 | 0.0 | 0.00 | 0.00 | 0.00 | 46 | 1008.0 |
| 20260504035005 | 25 | 295 | 0.0 | 0.0 | 0.00 | 0.00 | 0.00 | 45 | 1007.7 |
| 20260504034503 | 25 | 281 | 0.0 | 0.0 | 0.00 | 0.00 | 0.00 | 45 | 1007.9 |
| 20260504034000 | 25 | 293 | 0.0 | 0.0 | 0.00 | 0.00 | 0.00 | 44 | 1007.6 |
| 20260504033457 | 25 | 313 | 0.0 | 0.0 | 0.00 | 0.00 | 0.00 | 43 | 1007.7 |
| 20260504032955 | 25 | 283 | 0.0 | 0.0 | 0.00 | 0.00 | 0.00 | 43 | 1007.4 |
| 20260504032452 | 26 | 283 | 1.6 | 1.6 | 0.00 | 0.00 | 0.00 | 43 | 1007.5 |
| 20260504031948 | 26 | 283 | 0.0 | 0.0 | 0.00 | 0.00 | 0.00 | 42 | 1007.6 |
| 20260504031445 | 26 | 303 | 0.0 | 1.6 | 0.00 | 0.00 | 0.00 | 42 | 1007.6 |
| 20260504030942 | 26 | 298 | 0.0 | 0.0 | 0.00 | 0.00 | 0.00 | 40 | 1007.3 |
| 20260504030439 | 26 | 313 | 0.0 | 1.6 | 0.00 | 0.00 | 0.00 | 40 | 1007.5 |
| 20260504025934 | 27 | 303 | 0.0 | 0.0 | 0.00 | 0.00 | 0.00 | 39 | 1007.6 |
| 20260504025432 | 27 | 297 | 0.0 | 1.6 | 0.00 | 0.00 | 0.00 | 37 | 1007.5 |
| 20260504024929 | 27 | 299 | 0.0 | 0.0 | 0.00 | 0.00 | 0.00 | 36 | 1007.3 |
| 20260504024426 | 28 | 295 | 0.0 | 0.0 | 0.00 | 0.00 | 0.00 | 36 | 1007.4 |
| 20260504023923 | 28 | 279 | 1.6 | 1.6 | 0.00 | 0.00 | 0.00 | 34 | 1007.5 |
| 20260504023419 | 28 | 293 | 0.0 | 0.0 | 0.00 | 0.00 | 0.00 | 35 | 1007.5 |
| 20260504022915 | 29 | 341 | 0.0 | 0.0 | 0.00 | 0.00 | 0.00 | 35 | 1007.3 |
| 20260504022412 | 30 | 284 | 0.0 | 0.0 | 0.00 | 0.00 | 0.00 | 33 | 1007.6 |
| 20260504021908 | 30 | 317 | 0.0 | 0.0 | 0.00 | 0.00 | 0.00 | 34 | 1007.5 |
| 20260504021405 | 30 | 308 | 1.6 | 1.6 | 0.00 | 0.00 | 0.00 | 33 | 1007.6 |
| 20260504020903 | 31 | 308 | 1.6 | 1.6 | 0.00 | 0.00 | 0.00 | 32 | 1007.6 |
| 20260504020359 | 31 | 277 | 1.6 | 1.6 | 0.00 | 0.00 | 0.00 | 31 | 1007.8 |
| 20260504015855 | 31 | 299 | 1.6 | 1.6 | 0.00 | 0.00 | 0.00 | 33 | 1007.8 |
| 20260504015351 | 31 | 302 | 0.0 | 1.6 | 0.00 | 0.00 | 0.00 | 31 | 1007.8 |
| 20260504014847 | 31 | 318 | 0.0 | 0.0 | 0.00 | 0.00 | 0.00 | 32 | 1008.1 |
| 20260504014343 | 31 | 294 | 0.0 | 0.0 | 0.00 | 0.00 | 0.00 | 32 | 1008.0 |
| 20260504013841 | 30 | 308 | 3.2 | 3.2 | 0.00 | 0.00 | 0.00 | 31 | 1007.6 |
| 20260504013339 | 30 | 314 | 1.6 | 3.2 | 0.00 | 0.00 | 0.00 | 32 | 1007.5 |
| 20260504012836 | 30 | 294 | 1.6 | 1.6 | 0.00 | 0.00 | 0.00 | 31 | 1007.6 |
| 20260504012333 | 31 | 294 | 0.0 | 1.6 | 0.00 | 0.00 | 0.00 | 32 | 1007.7 |
| 20260504011831 | 31 | 303 | 0.0 | 0.0 | 0.00 | 0.00 | 0.00 | 30 | 1007.7 |
| 20260504011327 | 31 | 308 | 0.0 | 0.0 | 0.00 | 0.00 | 0.00 | 33 | 1007.6 |
| 20260504010823 | 31 | 305 | 1.6 | 3.2 | 0.00 | 0.00 | 0.00 | 31 | 1007.7 |
| 20260504010319 | 31 | 316 | 1.6 | 1.6 | 0.00 | 0.00 | 0.00 | 30 | 1007.8 |
| 20260504005815 | 31 | 292 | 3.2 | 4.8 | 0.00 | 0.00 | 0.00 | 29 | 1007.7 |
| 20260504005312 | 31 | 295 | 0.0 | 0.0 | 0.00 | 0.00 | 0.00 | 30 | 1007.8 |
| 20260504004810 | 31 | 298 | 0.0 | 0.0 | 0.00 | 0.00 | 0.00 | 31 | 1008.0 |
| 20260504004308 | 31 | 306 | 1.6 | 1.6 | 0.00 | 0.00 | 0.00 | 29 | 1007.6 |
| 20260504003804 | 31 | 294 | 3.2 | 4.8 | 0.00 | 0.00 | 0.00 | 28 | 1007.8 |
| 20260504003301 | 31 | 295 | 0.0 | 1.6 | 0.00 | 0.00 | 0.00 | 30 | 1007.7 |
| 20260504002757 | 31 | 305 | 3.2 | 3.2 | 0.00 | 0.00 | 0.00 | 31 | 1007.8 |
| 20260504002254 | 31 | 334 | 1.6 | 3.2 | 0.00 | 0.00 | 0.00 | 30 | 1007.9 |
| 20260504001752 | 31 | 318 | 0.0 | 1.6 | 0.00 | 0.00 | 0.00 | 29 | 1007.8 |
| 20260504001249 | 31 | 146 | 4.8 | 8.0 | 0.00 | 0.00 | 0.00 | 29 | 1007.9 |
| 20260504000746 | 31 | 306 | 0.0 | 0.0 | 0.00 | 0.00 | 0.00 | 30 | 1008.0 |
| 20260504000243 | 31 | 318 | 1.6 | 3.2 | 0.00 | 0.00 | 0.00 | 30 | 1007.8 |
| 20260503235741 | 31 | 300 | 3.2 | 3.2 | 0.00 | 0.00 | 0.00 | 29 | 1008.0 |
| 20260503235237 | 31 | 302 | 1.6 | 1.6 | 0.00 | 0.00 | 0.00 | 32 | 1007.8 |
| 20260503234735 | 31 | 281 | 1.6 | 1.6 | 0.00 | 0.00 | 0.00 | 28 | 1008.0 |
| 20260503234233 | 31 | 299 | 1.6 | 1.6 | 0.00 | 0.00 | 0.00 | 28 | 1008.1 |
| 20260503233730 | 31 | 336 | 0.0 | 1.6 | 0.00 | 0.00 | 0.00 | 28 | 1008.1 |
| 20260503233225 | 31 | 321 | 1.6 | 3.2 | 0.00 | 0.00 | 0.00 | 29 | 1008.2 |
| 20260503232723 | 31 | 294 | 0.0 | 1.6 | 0.00 | 0.00 | 0.00 | 29 | 1008.0 |
| 20260503232220 | 31 | 325 | 3.2 | 3.2 | 0.00 | 0.00 | 0.00 | 28 | 1008.4 |
| 20260503231718 | 31 | 30 | 4.8 | 4.8 | 0.00 | 0.00 | 0.00 | 28 | 1008.4 |
| 20260503231215 | 31 | 287 | 0.0 | 1.6 | 0.00 | 0.00 | 0.00 | 28 | 1008.3 |
| 20260503230711 | 31 | 131 | 3.2 | 3.2 | 0.00 | 0.00 | 0.00 | 27 | 1008.4 |
| 20260503230208 | 31 | 313 | 0.0 | 0.0 | 0.00 | 0.00 | 0.00 | 27 | 1008.4 |
| 20260503225706 | 31 | 316 | 1.6 | 1.6 | 0.00 | 0.00 | 0.00 | 29 | 1008.6 |
| 20260503225206 | 31 | 9 | 3.2 | 3.2 | 0.00 | 0.00 | 0.00 | 28 | 1008.7 |
| 20260503224703 | 31 | 286 | 4.8 | 12.9 | 0.00 | 0.00 | 0.00 | 27 | 1008.8 |
| 20260503224201 | 31 | 335 | 0.0 | 0.0 | 0.00 | 0.00 | 0.00 | 30 | 1008.6 |
| 20260503223658 | 31 | 286 | 0.0 | 1.6 | 0.00 | 0.00 | 0.00 | 32 | 1008.9 |
| 20260503223155 | 31 | 287 | 3.2 | 3.2 | 0.00 | 0.00 | 0.00 | 28 | 1008.9 |
| 20260503222652 | 31 | 300 | 3.2 | 3.2 | 0.00 | 0.00 | 0.00 | 31 | 1009.0 |
| 20260503222150 | 31 | 297 | 0.0 | 1.6 | 0.00 | 0.00 | 0.00 | 32 | 1009.3 |
| 20260503221648 | 31 | 294 | 0.0 | 0.0 | 0.00 | 0.00 | 0.00 | 31 | 1009.2 |
| 20260503221145 | 31 | 310 | 1.6 | 1.6 | 0.00 | 0.00 | 0.00 | 30 | 1009.3 |
| 20260503220641 | 31 | 298 | 3.2 | 3.2 | 0.00 | 0.00 | 0.00 | 31 | 1009.2 |
| 20260503220138 | 31 | 301 | 3.2 | 3.2 | 0.00 | 0.00 | 0.00 | 31 | 1009.4 |
| 20260503215636 | 31 | 303 | 0.0 | 1.6 | 0.00 | 0.00 | 0.00 | 32 | 1009.7 |
| 20260503215132 | 31 | 313 | 1.6 | 1.6 | 0.00 | 0.00 | 0.00 | 30 | 1009.4 |
| 20260503214631 | 31 | 296 | 0.0 | 0.0 | 0.00 | 0.00 | 0.00 | 35 | 1009.7 |
| 20260503214126 | 30 | 300 | 1.6 | 1.6 | 0.00 | 0.00 | 0.00 | 36 | 1009.5 |
| 20260503213626 | 30 | 292 | 0.0 | 1.6 | 0.00 | 0.00 | 0.00 | 37 | 1009.8 |
| 20260503213122 | 30 | 284 | 0.0 | 0.0 | 0.00 | 0.00 | 0.00 | 35 | 1009.8 |
| 20260503212620 | 30 | 263 | 3.2 | 4.8 | 0.00 | 0.00 | 0.00 | 37 | 1009.7 |
| 20260503212117 | 30 | 308 | 0.0 | 0.0 | 0.00 | 0.00 | 0.00 | 40 | 1010.0 |
| 20260503211614 | 30 | 305 | 1.6 | 3.2 | 0.00 | 0.00 | 0.00 | 37 | 1010.0 |
| 20260503211110 | 30 | 293 | 1.6 | 3.2 | 0.00 | 0.00 | 0.00 | 36 | 1010.0 |
| 20260503210606 | 30 | 261 | 1.6 | 3.2 | 0.00 | 0.00 | 0.00 | 37 | 1010.1 |
| 20260503205559 | 30 | 220 | 1.6 | 3.2 | 0.00 | 0.00 | 0.00 | 39 | 1010.4 |
| 20260503205055 | 30 | 317 | 4.8 | 4.8 | 0.00 | 0.00 | 0.00 | 40 | 1010.4 |
| 20260503204552 | 29 | 314 | 0.0 | 1.6 | 0.00 | 0.00 | 0.00 | 39 | 1010.5 |
| 20260503204049 | 30 | 296 | 1.6 | 1.6 | 0.00 | 0.00 | 0.00 | 40 | 1010.4 |
| 20260503203546 | 30 | 309 | 4.8 | 8.0 | 0.00 | 0.00 | 0.00 | 39 | 1010.5 |
| 20260503203043 | 30 | 225 | 1.6 | 1.6 | 0.00 | 0.00 | 0.00 | 41 | 1010.5 |
| 20260503202541 | 29 | 271 | 1.6 | 1.6 | 0.00 | 0.00 | 0.00 | 39 | 1010.5 |
| 20260503202039 | 30 | 145 | 3.2 | 3.2 | 0.00 | 0.00 | 0.00 | 41 | 1010.7 |
| 20260503201537 | 28 | 140 | 3.2 | 3.2 | 0.00 | 0.00 | 0.00 | 41 | 1011.0 |
| 20260503201034 | 29 | 292 | 1.6 | 1.6 | 0.00 | 0.00 | 0.00 | 42 | 1010.6 |
| 20260503200530 | 28 | 289 | 0.0 | 0.0 | 0.00 | 0.00 | 0.00 | 43 | 1010.7 |
| 20260503200027 | 28 | 138 | 3.2 | 4.8 | 0.00 | 0.00 | 0.00 | 44 | 1010.8 |
| 20260503195524 | 29 | 290 | 1.6 | 1.6 | 0.00 | 0.00 | 0.00 | 43 | 1010.8 |
| 20260503195021 | 28 | 301 | 1.6 | 3.2 | 0.00 | 0.00 | 0.00 | 43 | 1011.0 |
| 20260503194518 | 28 | 273 | 1.6 | 1.6 | 0.00 | 0.00 | 0.00 | 45 | 1011.4 |
| 20260503194018 | 27 | 295 | 1.6 | 1.6 | 0.00 | 0.00 | 0.00 | 47 | 1011.2 |
| 20260503193515 | 27 | 286 | 4.8 | 4.8 | 0.00 | 0.00 | 0.00 | 45 | 1011.3 |
| 20260503193010 | 28 | 313 | 1.6 | 3.2 | 0.00 | 0.00 | 0.00 | 44 | 1011.4 |
| 20260503192506 | 28 | 110 | 1.6 | 1.6 | 0.00 | 0.00 | 0.00 | 44 | 1011.4 |
| 20260503192002 | 27 | 273 | 0.0 | 1.6 | 0.00 | 0.00 | 0.00 | 48 | 1011.5 |
| 20260503191459 | 27 | 257 | 1.6 | 1.6 | 0.00 | 0.00 | 0.00 | 47 | 1011.4 |
| 20260503190955 | 26 | 284 | 0.0 | 1.6 | 0.00 | 0.00 | 0.00 | 49 | 1011.6 |
| 20260503190453 | 27 | 294 | 1.6 | 1.6 | 0.00 | 0.00 | 0.00 | 47 | 1011.6 |
| 20260503185950 | 27 | 10 | 1.6 | 1.6 | 0.00 | 0.00 | 0.00 | 47 | 1011.7 |
| 20260503185446 | 26 | 267 | 1.6 | 1.6 | 0.00 | 0.00 | 0.00 | 48 | 1011.7 |
| 20260503184946 | 26 | 262 | 1.6 | 1.6 | 0.00 | 0.00 | 0.00 | 51 | 1011.9 |
| 20260503184443 | 26 | 122 | 1.6 | 1.6 | 0.00 | 0.00 | 0.00 | 50 | 1011.8 |
| 20260503183939 | 26 | 282 | 0.0 | 0.0 | 0.00 | 0.00 | 0.00 | 50 | 1011.9 |
| 20260503183436 | 25 | 184 | 1.6 | 1.6 | 0.00 | 0.00 | 0.00 | 51 | 1012.1 |
| 20260503182933 | 25 | 311 | 0.0 | 1.6 | 0.00 | 0.00 | 0.00 | 53 | 1012.2 |
| 20260503182432 | 25 | 289 | 1.6 | 1.6 | 0.00 | 0.00 | 0.00 | 51 | 1012.3 |
| 20260503181929 | 25 | 285 | 1.6 | 3.2 | 0.00 | 0.00 | 0.00 | 53 | 1012.1 |
| 20260503181426 | 25 | 164 | 1.6 | 3.2 | 0.00 | 0.00 | 0.00 | 53 | 1012.3 |
| 20260503180921 | 25 | 174 | 1.6 | 3.2 | 0.00 | 0.00 | 0.00 | 53 | 1012.3 |
| 20260503180420 | 24 | 307 | 1.6 | 1.6 | 0.00 | 0.00 | 0.00 | 53 | 1012.4 |
| 20260503175916 | 24 | 315 | 3.2 | 3.2 | 0.00 | 0.00 | 0.00 | 56 | 1012.5 |
| 20260503175415 | 23 | 277 | 0.0 | 1.6 | 0.00 | 0.00 | 0.00 | 58 | 1012.2 |
| 20260503174910 | 23 | 86 | 3.2 | 4.8 | 0.00 | 0.00 | 0.00 | 57 | 1012.4 |
| 20260503174408 | 23 | 141 | 3.2 | 3.2 | 0.00 | 0.00 | 0.00 | 57 | 1012.5 |
| 20260503173903 | 23 | 276 | 1.6 | 1.6 | 0.00 | 0.00 | 0.00 | 57 | 1012.4 |
| 20260503173359 | 22 | 296 | 1.6 | 1.6 | 0.00 | 0.00 | 0.00 | 60 | 1012.8 |
| 20260503172856 | 22 | 177 | 1.6 | 3.2 | 0.00 | 0.00 | 0.00 | 59 | 1012.4 |
| 20260503172354 | 22 | 308 | 1.6 | 1.6 | 0.00 | 0.00 | 0.00 | 61 | 1012.9 |
| 20260503171849 | 23 | 301 | 3.2 | 3.2 | 0.00 | 0.00 | 0.00 | 60 | 1012.8 |
| 20260503171346 | 22 | 298 | 0.0 | 0.0 | 0.00 | 0.00 | 0.00 | 59 | 1012.8 |
| 20260503170844 | 22 | 291 | 1.6 | 1.6 | 0.00 | 0.00 | 0.00 | 62 | 1012.7 |
| 20260503170340 | 22 | 214 | 0.0 | 1.6 | 0.00 | 0.00 | 0.00 | 62 | 1012.8 |
| 20260503150732 | 14 | 297 | 1.6 | 1.6 | 0.00 | 0.00 | 0.00 | 99 | 1013.3 |
| 20260503150229 | 13 | 303 | 0.0 | 0.0 | 0.00 | 0.00 | 0.00 | 99 | 1013.3 |
| 20260503140153 | 11 | 299 | 0.0 | 0.0 | 0.00 | 0.00 | 0.00 | 99 | 1013.0 |
| 20260503131117 | 10 | 299 | 0.0 | 0.0 | 0.00 | 0.00 | 0.00 | 99 | 1012.9 |
| 20260503130614 | 10 | 299 | 0.0 | 0.0 | 0.00 | 0.00 | 0.00 | 99 | 1012.8 |
| 20260503130112 | 10 | 299 | 0.0 | 0.0 | 0.00 | 0.00 | 0.00 | 99 | 1012.6 |
| 20260503110504 | 10 | 299 | 0.0 | 0.0 | 0.00 | 0.00 | 0.00 | 99 | 1013.1 |
| 20260503090350 | 11 | 299 | 0.0 | 0.0 | 0.00 | 0.00 | 0.00 | 99 | 1013.5 |
| 20260503081317 | 12 | 298 | 0.0 | 0.0 | 0.00 | 0.00 | 0.00 | 99 | 1013.5 |
| 20260503080814 | 12 | 299 | 0.0 | 0.0 | 0.00 | 0.00 | 0.00 | 99 | 1013.4 |
| 20260503080311 | 12 | 299 | 0.0 | 0.0 | 0.00 | 0.00 | 0.00 | 99 | 1013.4 |
| 20260503072748 | 12 | 299 | 0.0 | 0.0 | 0.00 | 0.00 | 0.00 | 99 | 1013.5 |
| 20260503072245 | 12 | 299 | 0.0 | 0.0 | 0.00 | 0.00 | 0.00 | 99 | 1013.6 |
| 20260503071741 | 12 | 299 | 0.0 | 0.0 | 0.00 | 0.00 | 0.00 | 99 | 1013.7 |
| 20260503071238 | 12 | 299 | 0.0 | 0.0 | 0.00 | 0.00 | 0.00 | 98 | 1013.5 |
| 20260503070734 | 12 | 299 | 0.0 | 0.0 | 0.00 | 0.00 | 0.00 | 98 | 1013.6 |
| 20260503070232 | 12 | 299 | 0.0 | 0.0 | 0.00 | 0.00 | 0.00 | 97 | 1013.6 |
| 20260503060157 | 14 | 299 | 0.0 | 0.0 | 0.00 | 0.00 | 0.00 | 92 | 1013.5 |
| 20260503054644 | 15 | 299 | 0.0 | 0.0 | 0.00 | 0.00 | 0.00 | 91 | 1013.7 |
| 20260503054141 | 15 | 299 | 0.0 | 0.0 | 0.00 | 0.00 | 0.00 | 90 | 1013.4 |
| 20260503053639 | 15 | 299 | 0.0 | 0.0 | 0.00 | 0.00 | 0.00 | 90 | 1013.4 |
| 20260503053138 | 15 | 299 | 0.0 | 0.0 | 0.00 | 0.00 | 0.00 | 89 | 1013.4 |
| 20260503052633 | 15 | 299 | 0.0 | 0.0 | 0.00 | 0.00 | 0.00 | 89 | 1013.4 |
| 20260503052130 | 15 | 303 | 1.6 | 1.6 | 0.00 | 0.00 | 0.00 | 88 | 1013.3 |
| 20260503051625 | 15 | 303 | 0.0 | 0.0 | 0.00 | 0.00 | 0.00 | 87 | 1013.5 |
| 20260503051123 | 16 | 303 | 0.0 | 0.0 | 0.00 | 0.00 | 0.00 | 86 | 1013.4 |
| 20260503050620 | 16 | 303 | 0.0 | 0.0 | 0.00 | 0.00 | 0.00 | 86 | 1013.5 |
| 20260503050116 | 16 | 303 | 0.0 | 0.0 | 0.00 | 0.00 | 0.00 | 85 | 1013.2 |
| 20260503045614 | 16 | 303 | 0.0 | 1.6 | 0.00 | 0.00 | 0.00 | 84 | 1013.7 |
| 20260503045111 | 16 | 299 | 1.6 | 1.6 | 0.00 | 0.00 | 0.00 | 83 | 1013.4 |
| 20260503044607 | 16 | 308 | 1.6 | 1.6 | 0.00 | 0.00 | 0.00 | 83 | 1013.7 |